Cando, ND

6:01 PM CDT on September 27, 2016 (GMT -0500)
Cando

Weather History for K9D7 - October, 2013

Change the Weather History Date:

Friday, October 4, 2013

  Actual Average (KDVL) Record (KDVL)
Temperature  
Mean Temperature 39 °F -  
Max Temperature 41 °F 59 °F 94 °F (1963)
Min Temperature 37 °F 37 °F 21 °F (1968)
Degree Days  
Heating Degree Days 26    
Moisture  
Dew Point 33 °F    
Average Humidity 77    
Maximum Humidity 93    
Minimum Humidity 65    
Precipitation  
Precipitation 0.00 in - - ()
Sea Level Pressure  
Sea Level Pressure 30.28 in    
Wind  
Wind Speed 15 mph (NNE)    
Max Wind Speed 25 mph    
Max Gust Speed 36 mph    
Visibility 10 miles    
Events      
Averages and records for this station are not official NWS values.
T = Trace of Precipitation, MM = Missing Value Source: NWS Daily Summary

Daily Weather History Graph

Daily Weather History Graph

Search for Another Location

Airport or City:

Trip Planner

Search our weather history database for the weather conditions in past years. The results will help you decide how hot, cold, wet, or windy it might be!

Date:

Astronomy

Oct. 04, 2013 Rise Set
Actual Time 7:41 AM CDT 7:09 PM CDT
Civil Twilight 7:09 AM CDT 7:40 PM CDT
Nautical Twilight 6:33 AM CDT 8:16 PM CDT
Astronomical Twilight 5:56 AM CDT 8:53 PM CDT
Moon 7:19 AM CDT (10/4) 6:49 PM CDT (10/4)
Length of Visible Light 12h 30m
Length of Day
11h 28m
Waning Crescent, 0% of the Moon is Illuminated
Oct 4
Waning Crescent
Oct 4
New
Oct 11
First Quarter
Oct 18
Full
Oct 26
Last Quarter

Hourly Weather History & Observations

Time (CDT) Temp. Windchill Dew Point Humidity Pressure Visibility Wind Dir Wind Speed Gust Speed Precip Events Conditions
12:15 AM 39.2 °F 31.2 °F 37.4 °F 93% 30.24 in 10.0 mi NNE 13.8 mph 25.3 mph N/A   Mostly Cloudy
12:35 AM 41.0 °F 33.1 °F 37.4 °F 87% 30.25 in 10.0 mi North 15.0 mph 24.2 mph N/A   Mostly Cloudy
12:55 AM 41.0 °F 32.8 °F 37.4 °F 87% 30.24 in 10.0 mi NNE 16.1 mph 23.0 mph N/A   Overcast
1:15 AM 41.0 °F 32.5 °F 37.4 °F 87% 30.24 in 10.0 mi NNE 17.3 mph 23.0 mph N/A   Overcast
1:35 AM 39.2 °F 31.2 °F 37.4 °F 93% 30.24 in 10.0 mi NNE 13.8 mph 20.7 mph N/A   Mostly Cloudy
1:55 AM 39.2 °F 31.6 °F 37.4 °F 93% 30.24 in 10.0 mi NNE 12.7 mph 20.7 mph N/A   Partly Cloudy
2:15 AM 39.2 °F 31.2 °F 37.4 °F 93% 30.25 in 10.0 mi NNE 13.8 mph 18.4 mph N/A   Mostly Cloudy
2:35 AM 39.2 °F 31.6 °F 37.4 °F 93% 30.25 in 10.0 mi NNE 12.7 mph - N/A   Overcast
2:55 AM 39.2 °F 32.0 °F 37.4 °F 93% 30.24 in 10.0 mi NNE 11.5 mph - N/A   Scattered Clouds
3:15 AM 39.2 °F 33.0 °F 37.4 °F 93% 30.25 in 10.0 mi NNE 9.2 mph - N/A   Clear
3:35 AM 39.2 °F 33.0 °F 37.4 °F 93% 30.25 in 10.0 mi NNE 9.2 mph - N/A   Mostly Cloudy
3:55 AM 39.2 °F 31.6 °F 37.4 °F 93% 30.25 in 10.0 mi NE 12.7 mph 17.3 mph N/A   Overcast
4:15 AM 39.2 °F 31.2 °F 35.6 °F 87% 30.25 in 10.0 mi NNE 13.8 mph 18.4 mph N/A   Mostly Cloudy
4:35 AM 39.2 °F 31.6 °F 35.6 °F 87% 30.27 in 10.0 mi NNE 12.7 mph 18.4 mph N/A   Overcast
4:55 AM 39.2 °F 30.2 °F 35.6 °F 87% 30.27 in 10.0 mi NNE 17.3 mph 23.0 mph N/A   Overcast
5:15 AM 39.2 °F 30.2 °F 35.6 °F 87% 30.27 in 10.0 mi NNE 17.3 mph 23.0 mph N/A   Overcast
5:35 AM 39.2 °F 32.0 °F 33.8 °F 81% 30.28 in 10.0 mi NE 11.5 mph 23.0 mph N/A   Overcast
5:55 AM 39.2 °F 32.0 °F 33.8 °F 81% 30.30 in 10.0 mi NE 11.5 mph 20.7 mph N/A   Overcast
6:15 AM 39.2 °F 32.0 °F 32.0 °F 75% 30.30 in 10.0 mi NE 11.5 mph 19.6 mph N/A   Overcast
6:35 AM 39.2 °F 33.0 °F 32.0 °F 75% 30.31 in 10.0 mi NE 9.2 mph - N/A   Overcast
6:55 AM 39.2 °F 34.2 °F 33.8 °F 81% 30.32 in 10.0 mi NNE 6.9 mph - N/A   Overcast
7:35 AM 37.4 °F 28.5 °F 33.8 °F 87% 30.34 in 10.0 mi NNE 15.0 mph 20.7 mph N/A   Overcast
7:55 AM 37.4 °F 27.5 °F 32.0 °F 81% 30.33 in 10.0 mi NNE 18.4 mph 24.2 mph N/A   Overcast
8:15 AM 37.4 °F 29.3 °F 32.0 °F 81% 30.33 in 10.0 mi NNE 12.7 mph 18.4 mph N/A   Overcast
8:35 AM 37.4 °F 28.5 °F 32.0 °F 81% 30.33 in 10.0 mi NNE 15.0 mph 19.6 mph N/A   Mostly Cloudy
8:55 AM 37.4 °F 28.2 °F 32.0 °F 81% 30.32 in 10.0 mi NNE 16.1 mph 24.2 mph N/A   Clear
9:15 AM 37.4 °F 29.3 °F 32.0 °F 81% 30.32 in 10.0 mi NNE 12.7 mph 20.7 mph N/A   Clear
9:35 AM 37.4 °F 28.5 °F 32.0 °F 81% 30.33 in 10.0 mi NNE 15.0 mph 19.6 mph N/A   Partly Cloudy
9:55 AM 37.4 °F 28.2 °F 32.0 °F 81% 30.34 in 10.0 mi NNE 16.1 mph 19.6 mph N/A   Mostly Cloudy
10:15 AM 37.4 °F 28.5 °F 32.0 °F 81% 30.33 in 10.0 mi NNE 15.0 mph 23.0 mph N/A   Overcast
10:35 AM 37.4 °F 27.2 °F 32.0 °F 81% 30.32 in 10.0 mi NNE 19.6 mph 25.3 mph N/A   Mostly Cloudy
10:55 AM 39.2 °F 29.8 °F 32.0 °F 75% 30.32 in 10.0 mi NNE 18.4 mph 24.2 mph N/A   Mostly Cloudy
11:15 AM 39.2 °F 30.2 °F 32.0 °F 75% 30.31 in 10.0 mi NNE 17.3 mph 25.3 mph N/A   Overcast
11:35 AM 39.2 °F 29.6 °F 32.0 °F 75% 30.31 in 10.0 mi NE 19.6 mph 25.3 mph N/A   Overcast
11:55 AM 39.2 °F 30.2 °F 32.0 °F 75% 30.31 in 10.0 mi NE 17.3 mph 25.3 mph N/A   Overcast
12:15 PM 41.0 °F 32.5 °F 32.0 °F 70% 30.31 in 10.0 mi NNE 17.3 mph 26.5 mph N/A   Overcast
12:35 PM 41.0 °F 32.5 °F 32.0 °F 70% 30.30 in 10.0 mi NE 17.3 mph 26.5 mph N/A   Overcast
12:55 PM 41.0 °F 31.4 °F 32.0 °F 70% 30.29 in 10.0 mi NNE 21.9 mph 28.8 mph N/A   Mostly Cloudy
1:15 PM 41.0 °F 31.4 °F 32.0 °F 70% 30.30 in 10.0 mi NNE 21.9 mph 29.9 mph N/A   Mostly Cloudy
1:35 PM 41.0 °F 31.6 °F 32.0 °F 70% 30.30 in 10.0 mi NNE 20.7 mph 31.1 mph N/A   Partly Cloudy
1:55 PM 41.0 °F 32.2 °F 32.0 °F 70% 30.30 in 10.0 mi NNE 18.4 mph 31.1 mph N/A   Partly Cloudy
2:15 PM 41.0 °F 31.9 °F 32.0 °F 70% 30.30 in 10.0 mi NNE 19.6 mph 27.6 mph N/A   Scattered Clouds
2:35 PM 41.0 °F 31.4 °F 32.0 °F 70% 30.29 in 10.0 mi NNE 21.9 mph 28.8 mph N/A   Partly Cloudy
2:55 PM 41.0 °F 32.8 °F 32.0 °F 70% 30.29 in 10.0 mi NNE 16.1 mph 25.3 mph N/A   Partly Cloudy
3:15 PM 41.0 °F 31.6 °F 32.0 °F 70% 30.28 in 10.0 mi NNE 20.7 mph 28.8 mph N/A   Mostly Cloudy
3:35 PM 41.0 °F 33.9 °F 30.2 °F 65% 30.28 in 10.0 mi NNE 12.7 mph 27.6 mph N/A   Scattered Clouds
3:55 PM 41.0 °F 32.5 °F 30.2 °F 65% 30.28 in 10.0 mi NNE 17.3 mph 26.5 mph N/A   Clear
4:15 PM 41.0 °F 32.5 °F 30.2 °F 65% 30.28 in 10.0 mi NNE 17.3 mph 27.6 mph N/A   Partly Cloudy
4:35 PM 41.0 °F 32.2 °F 30.2 °F 65% 30.28 in 10.0 mi NE 18.4 mph 25.3 mph N/A   Scattered Clouds
4:55 PM 41.0 °F 32.5 °F 32.0 °F 70% 30.28 in 10.0 mi NNE 17.3 mph 25.3 mph N/A   Mostly Cloudy
5:15 PM 41.0 °F 32.8 °F 32.0 °F 70% 30.28 in 10.0 mi NNE 16.1 mph 25.3 mph N/A   Overcast
5:35 PM 41.0 °F 32.5 °F 32.0 °F 70% 30.29 in 10.0 mi NNE 17.3 mph 25.3 mph N/A   Mostly Cloudy
5:55 PM 39.2 °F 30.8 °F 32.0 °F 75% 30.29 in 10.0 mi NNE 15.0 mph 23.0 mph N/A   Mostly Cloudy
6:15 PM 39.2 °F 30.2 °F 32.0 °F 75% 30.28 in 10.0 mi NNE 17.3 mph 21.9 mph N/A   Mostly Cloudy
6:35 PM 39.2 °F 29.8 °F 32.0 °F 75% 30.28 in 10.0 mi NNE 18.4 mph 24.2 mph N/A   Mostly Cloudy
6:55 PM 39.2 °F 29.8 °F 32.0 °F 75% 30.28 in 10.0 mi NNE 18.4 mph 25.3 mph N/A   Overcast
7:15 PM 39.2 °F 29.6 °F 30.2 °F 70% 30.28 in 10.0 mi NNE 19.6 mph 27.6 mph N/A   Overcast
7:35 PM 39.2 °F 30.2 °F 30.2 °F 70% 30.28 in 10.0 mi NNE 17.3 mph 26.5 mph N/A   Overcast
7:55 PM 39.2 °F 29.8 °F 30.2 °F 70% 30.28 in 10.0 mi NNE 18.4 mph 25.3 mph N/A   Overcast
8:15 PM 39.2 °F 30.2 °F 30.2 °F 70% 30.26 in 10.0 mi NNE 17.3 mph 29.9 mph N/A   Overcast
8:35 PM 39.2 °F 29.6 °F 32.0 °F 75% 30.25 in 10.0 mi NNE 19.6 mph 27.6 mph N/A   Overcast
8:55 PM 39.2 °F 29.3 °F 30.2 °F 70% 30.24 in 10.0 mi NNE 20.7 mph 28.8 mph N/A   Overcast
9:15 PM 39.2 °F 29.0 °F 30.2 °F 70% 30.23 in 10.0 mi NNE 21.9 mph 31.1 mph N/A   Overcast
9:35 PM 39.2 °F 28.3 °F 30.2 °F 70% 30.23 in 10.0 mi NNE 25.3 mph 35.7 mph N/A   Overcast
9:55 PM 39.2 °F 28.3 °F 30.2 °F 70% 30.22 in 10.0 mi NNE 25.3 mph 34.5 mph N/A   Overcast
10:15 PM 39.2 °F 29.6 °F 30.2 °F 70% 30.22 in 10.0 mi NE 19.6 mph 29.9 mph N/A   Overcast
10:35 PM 39.2 °F 29.6 °F 30.2 °F 70% 30.22 in 10.0 mi NNE 19.6 mph 27.6 mph N/A   Overcast
10:55 PM 39.2 °F 30.2 °F 30.2 °F 70% 30.22 in 10.0 mi NE 17.3 mph 29.9 mph N/A   Overcast
11:15 PM 39.2 °F 30.5 °F 30.2 °F 70% 30.21 in 10.0 mi NE 16.1 mph 26.5 mph N/A   Overcast
11:35 PM 39.2 °F 30.5 °F 30.2 °F 70% 30.21 in 10.0 mi NE 16.1 mph 28.8 mph N/A   Overcast
11:55 PM 39.2 °F 29.0 °F 30.2 °F 70% 30.20 in 10.0 mi NE 21.9 mph 27.6 mph N/A   Overcast